User: anonymous   Login
Location: Chevoux
(46.3801°N, 4.9476°E)
Time: 15:27:20
(UTC+00:00)
Language:

NOSS 2-2 (C) - Orbit

View from above orbital plane
View from above orbital plane
View from above satellite
View from above satellite

Ground track
Ground track

The orbit data is extracted from the following two-line orbital elements,

1 21799U 91076C   21103.92484502 0.00000250  00000-0  42127-4 0    02
2 21799  63.3219  83.7531 0862199  42.7756 317.2244 13.41453701    09
Epoch (UTC): 13 April 2021 22:11:46
Eccentricity: 0.0862199
inclination: 63.3219°
perigee height: 459 km
apogee height: 1749 km
right ascension of ascending node: 83.7531°
argument of perigee: 42.7756°
revolutions per day: 13.41453701
mean anomaly at epoch: 317.2244°
orbit number at epoch: 0

The dashed part of the orbit path shows where the satellite is in the earth's shadow,  

DLR